Change the Weather History Date:

Saturday, December 1, 2012

  Actual Average (KGON) Record (KGON)
Temperature  
Mean Temperature 36 °F -  
Max Temperature 41 °F 45 °F 66 °F (1962)
Min Temperature 32 °F 28 °F 8 °F (1989)
Degree Days  
Heating Degree Days 30    
Moisture  
Dew Point 31 °F    
Average Humidity 83    
Maximum Humidity 93    
Minimum Humidity 64    
Precipitation  
Precipitation 0.00 in - - ()
Sea Level Pressure  
Sea Level Pressure 30.52 in    
Wind  
Wind Speed 7 mph (NE)    
Max Wind Speed 9 mph    
Max Gust Speed -    
Visibility 10 miles    
Events Snow    
Averages and records for this station are not official NWS values.
T = Trace of Precipitation, MM = Missing Value Source: NWS Daily Summary

Daily Weather History Graph

Daily Weather History Graph

Search for Another Location

Airport or City:

Trip Planner

Search our weather history database for the weather conditions in past years. The results will help you decide how hot, cold, wet, or windy it might be!

Date:

Astronomy

Dec. 01, 2012 Rise Set
Actual Time 6:54 AM EST 4:18 PM EST
Civil Twilight 6:23 AM EST 4:49 PM EST
Nautical Twilight 5:49 AM EST 5:23 PM EST
Astronomical Twilight 5:15 AM EST 5:56 PM EST
Moon 7:06 PM EST 9:04 AM EST
Length of Visible Light 10h 25m
Length of Day
9h 24m
Waning Gibbous, 92% of the Moon is Illuminated
Dec 1
Waning Gibbous
Dec 6
Last Quarter
Dec 13
New
Dec 20
First Quarter
Dec 28
Full

Hourly Weather History & Observations

Time (EST) Temp. Windchill Dew Point Humidity Pressure Visibility Wind Dir Wind Speed Gust Speed Precip Events Conditions
1:53 AM 34.0 °F 28.0 °F 23.0 °F 64% 30.53 in 10.0 mi NE 6.9 mph - N/A   Overcast
2:53 AM 34.0 °F 28.0 °F 23.0 °F 64% 30.53 in 10.0 mi NNE 6.9 mph - N/A   Overcast
3:53 AM 33.1 °F 25.5 °F 23.0 °F 66% 30.53 in 10.0 mi NNE 9.2 mph - N/A   Overcast
4:53 AM 33.1 °F 26.9 °F 23.0 °F 66% 30.53 in 8.0 mi ENE 6.9 mph - 0.00 in Snow Light Snow
5:53 AM 32.0 °F 26.4 °F 25.0 °F 75% 30.53 in 10.0 mi NE 5.8 mph - 0.00 in   Overcast
6:16 AM 32.0 °F 25.6 °F 26.6 °F 80% 30.53 in 10.0 mi NE 6.9 mph - N/A   Overcast
6:53 AM 32.0 °F 25.6 °F 27.0 °F 82% 30.55 in 10.0 mi NNE 6.9 mph - N/A   Overcast
7:53 AM 33.1 °F 26.9 °F 28.0 °F 82% 30.57 in 10.0 mi NE 6.9 mph - N/A   Overcast
8:53 AM 34.0 °F 28.8 °F 28.0 °F 79% 30.58 in 10.0 mi NNE 5.8 mph - N/A   Overcast
9:53 AM 34.0 °F 26.6 °F 28.9 °F 82% 30.58 in 10.0 mi NE 9.2 mph - N/A   Overcast
10:10 AM 33.8 °F 26.4 °F 28.4 °F 81% 30.58 in 10.0 mi NNE 9.2 mph - N/A   Overcast
10:53 AM 34.0 °F 27.2 °F 28.9 °F 82% 30.57 in 10.0 mi NE 8.1 mph - N/A   Overcast
11:32 AM 35.6 °F 29.2 °F 30.2 °F 81% 30.53 in 10.0 mi NE 8.1 mph - N/A   Overcast
11:53 AM 36.0 °F 29.6 °F 30.9 °F 82% 30.53 in 10.0 mi NNE 8.1 mph - N/A   Overcast
12:53 PM 36.0 °F 29.6 °F 32.0 °F 86% 30.52 in 9.0 mi NE 8.1 mph - N/A   Overcast
2:53 PM 36.0 °F 30.3 °F 33.1 °F 89% 30.51 in 10.0 mi NE 6.9 mph - N/A   Overcast
3:53 PM 36.0 °F 29.6 °F 33.1 °F 89% 30.51 in 10.0 mi NE 8.1 mph - N/A   Overcast
4:49 PM 37.4 °F 32.8 °F 33.8 °F 87% 30.51 in 10.0 mi NE 5.8 mph - N/A   Overcast
4:53 PM 36.0 °F 29.6 °F 34.0 °F 93% 30.52 in 10.0 mi NNE 8.1 mph - N/A   Overcast
5:53 PM 37.0 °F 31.0 °F 34.0 °F 89% 30.53 in 10.0 mi NE 8.1 mph - N/A   Overcast
6:53 PM 37.9 °F 31.5 °F 35.1 °F 89% 30.52 in 10.0 mi NE 9.2 mph - N/A   Overcast
7:44 PM 39.2 °F 35.9 °F 35.6 °F 87% 30.50 in 10.0 mi NE 4.6 mph - N/A   Overcast
7:53 PM 39.0 °F 34.8 °F 36.0 °F 89% 30.51 in 10.0 mi NE 5.8 mph - N/A   Overcast
8:53 PM 39.0 °F 34.0 °F 36.0 °F 89% 30.49 in 9.0 mi NE 6.9 mph - N/A   Overcast
9:27 PM 39.2 °F 34.2 °F 35.6 °F 87% 30.48 in 9.0 mi NNE 6.9 mph - N/A   Overcast
9:35 PM 39.2 °F 34.2 °F 35.6 °F 87% 30.48 in 9.0 mi NNE 6.9 mph - N/A   Overcast
9:53 PM 39.0 °F 34.8 °F 36.0 °F 89% 30.48 in 9.0 mi Variable 5.8 mph - N/A   Overcast
10:53 PM 39.0 °F 34.8 °F 37.0 °F 93% 30.47 in 9.0 mi NE 5.8 mph - N/A   Overcast
11:26 PM 39.2 °F 37.0 °F 37.4 °F 93% 30.47 in 9.0 mi NNE 3.5 mph - N/A   Overcast
11:53 PM 41.0 °F 36.4 °F 37.9 °F 89% 30.46 in 9.0 mi NE 6.9 mph - N/A   Overcast